Flag for Brunei Weather past 2 weeks in Kuala Belait, Brunei

81 °F

Broken clouds.

Feels Like: 87 °F
Forecast: 78 / 89 °F
Wind: 7 mph from Southeast

Location: Miri Airport

Current Time: Nov 29, 2015 at 8:56:54 AM

Latest Report: Nov 29, 2015 at 8:00 AM

Visibility: N/A

Pressure: 29.89 "Hg

Humidity: 89%

Dew point: 77 °F

Location of Kuala BelaitLocation

Historic Weather in Kuala Belait — Graph


Kuala Belait temperature yesterday

Maximum temperature yesterday: 88 °F (at 12:00 PM)
Minimum temperature yesterday: 79 °F (at 1:00 AM)
Average temperature yesterday: 82 °F

Past Weeks' High & Low Weather Summary

High90 °F (Nov 15, 10:00 AM)100% (Nov 14, 7:00 AM)29.89 "Hg (Nov 14, 7:00 AM)
Low73 °F (Nov 19, 3:00 AM)63% (Nov 27, 3:00 PM)29.68 "Hg (Nov 15, 4:00 PM)
Average82 °F86%29.78 "Hg
* Reported Nov 14 7:00 AM — Nov 29 7:00 AM, Kuala Belait, Weather by CustomWeather, © 2015

Note: Actual official high and low records may vary slightly from our data, if they occured in-between our weather recording intervals... More about our weather records


Kuala Belait weather history for previous 24 hours

Time TempWeatherWind HumidityBarometerVisibility
7:00 AM
Sun, Nov 29
77 °FBroken clouds.2 mph100%29.86 "HgN/A
6:00 AM77 °FPassing clouds.3 mph94%29.86 "HgN/A
5:00 AM77 °FPartly cloudy.2 mph94%29.86 "HgN/A
4:00 AM77 °FPartly cloudy.3 mph100%29.83 "HgN/A
3:00 AM79 °FPartly cloudy.1 mph94%29.86 "HgN/A
2:00 AM79 °FPartly cloudy.3 mph94%29.86 "HgN/A
1:00 AM79 °FPartly cloudy.6 mph94%29.86 "HgN/A
12:00 AM79 °FPartly cloudy.3 mph94%29.89 "HgN/A
11:00 PM
Sat, Nov 28
79 °FPartly cloudy.3 mph94%29.89 "HgN/A
10:00 PM79 °FPartly cloudy.3 mph94%29.89 "HgN/A
9:00 PM79 °FPartly cloudy.3 mph94%29.86 "HgN/A
8:00 PM79 °FPartly cloudy.3 mph100%29.86 "HgN/A
7:00 PM81 °FThunderstorms. Mostly cloudy.5 mph94%29.83 "Hg5 mi
6:00 PM82 °FThunderstorms. More clouds than sun.5 mph89%29.80 "Hg5 mi
5:00 PM82 °FThunderstorms. Broken clouds.6 mph89%29.80 "Hg5 mi
4:00 PM81 °FLight rain. Broken clouds.10 mph94%29.77 "Hg4 mi
3:00 PM84 °FThunderstorms. Broken clouds.9 mph84%29.77 "HgN/A
2:00 PM86 °FThunderstorms. Broken clouds.8 mph79%29.80 "HgN/A
1:00 PM88 °FBroken clouds.8 mph75%29.83 "HgN/A
12:00 PM88 °FBroken clouds.7 mph75%29.86 "HgN/A
11:00 AM84 °FBroken clouds.7 mph84%29.89 "HgN/A
10:00 AM84 °FBroken clouds.6 mph79%29.89 "HgN/A
9:00 AM86 °FBroken clouds.2 mph79%29.86 "HgN/A
Weather by CustomWeather, © 2015

See weather overviewHow to use our weather pages